Project,Study,Ord_Occ,Event_Num,Cast_ID,Date_Time_UTC,Date_Time_PST,Lat_Dec,Lon_Dec,Sta_ID,Line,Sta,Depth,Pressure,PrQ,Temp1,Temp1Q,Temp2,Temp2Q,TempAve,Salt1,Salt1Q,Salt1_Corr,Salt2,Salt2Q,Salt2_Corr,SaltAve_Corr,Ox1,Ox1Q,Ox1_CruiseCorr,Ox1_StaCorr,Ox2,Ox2Q,Ox2_CruiseCorr,Ox2_StaCorr,OxAve_StaCorr,Ox1uM,Ox1uM_CruiseCorr,Ox1uM_StaCorr,Ox2uM,Ox2uM_CruiseCorr,Ox2uM_StaCorr,OxAveuM_StaCorr,FluorV,FluorQ,EstChl_CruiseCorr,EstChl_StaCorr,ISUSV,ISUSQ,EstNO3_CruiseCorr,EstNO3_StaCorr,SigThetaTS1,SigThetaTS1Q,SigThetaTS2,SigThetaTS2Q,BAT,XMiss,TransQ,pH,pHQ,SPAR,SPARQ,PAR,PARQ,PoT1,PoT2,DynHt,SVA,OxSat1,OxSat2,BTL_Depth,BTL_Temp,SaltB,OxB,OxBuM,Chl-a,Phaeo,NO3,NO2,NH4,PO4,SIL
CalCOFI,2007SR,017,,2007_017u,16-Jul-2020 11:43:32,16-Jul-2020 03:43:32,29.84644,-123.58618,093.3 120.0,093.3,120.0,515.000,519.173,,5.7753,,5.7773,,5.7763,34.2307,,34.2309,34.2320,,34.2336,34.2323,0.4037,,0.4041,0.4675,,,,,,17.553,17.8355,19.5564,,,,,0.0324,,,,1.8439,,41.5368,40.022,26.9783,,26.9791,,0.6274,85.4840,,7.538,,1.9043E+00,,1.0000E-12,,5.7310,5.7330,1.0219,,5.782,,,,,,,,,,,,,
CalCOFI,2007SR,017,,2007_017u,16-Jul-2020 11:43:34,16-Jul-2020 03:43:34,29.84644,-123.58618,093.3 120.0,093.3,120.0,514.000,518.164,,5.7724,,5.7790,,5.7757,34.2293,,34.2295,34.2301,,34.2317,34.2306,0.4012,,0.4015,0.4649,,,,,,17.448,17.7259,19.4467,,,,,0.0315,,,,1.8415,,41.4695,39.955,26.9776,,26.9774,,0.6274,85.4837,,7.538,,1.9043E+00,,1.0000E-12,,5.7282,5.7348,1.0219,,5.747,,514,5.772,34.2237,0.409,17.85,,,40.61,0.00,0.10,3.09,79.43
CalCOFI,2007SR,017,,2007_017u,16-Jul-2020 11:44:39,16-Jul-2020 03:44:39,29.84645,-123.58618,093.3 120.0,093.3,120.0,513.000,517.155,,5.7676,,5.7663,,5.7670,34.2298,,34.2300,34.2311,,34.2327,34.2314,0.4004,,0.4007,0.4640,,,,,,17.412,17.6883,19.4091,,,,,0.0322,,,,1.8521,,41.7671,40.248,26.9785,,26.9797,,0.6268,85.4971,,7.539,,1.9043E+00,,1.0000E-12,,5.7235,5.7222,1.0303,,5.735,,,,,,,,,,,,,
CalCOFI,2007SR,017,,2007_017u,16-Jul-2020 11:44:54,16-Jul-2020 03:44:54,29.84646,-123.58618,093.3 120.0,093.3,120.0,512.000,516.145,,5.7662,,5.7659,,5.7661,34.2297,,34.2299,34.2307,,34.2323,34.2311,0.4031,,0.4035,0.4669,,,,,,17.529,17.8104,19.5313,,,,,0.0313,,,,1.8478,,41.6464,40.129,26.9786,,26.9795,,0.6265,85.5035,,7.540,,1.9043E+00,,1.0000E-12,,5.7222,5.7219,1.0326,,5.773,,,,,,,,,,,,,
CalCOFI,2007SR,017,,2007_017u,16-Jul-2020 11:44:55,16-Jul-2020 03:44:55,29.84646,-123.58618,093.3 120.0,093.3,120.0,511.000,515.136,,5.7658,,5.7654,,5.7656,34.2295,,34.2297,34.2305,,34.2321,34.2309,0.4110,,0.4118,0.4751,,,,,,17.873,18.1695,19.8907,,,,,0.0314,,,,1.8471,,41.6267,40.110,26.9785,,26.9793,,0.6268,85.4974,,7.540,,1.9043E+00,,1.0000E-12,,5.7219,5.7215,1.0326,,5.886,,,,,,,,,,,,,
CalCOFI,2007SR,017,,2007_017u,16-Jul-2020 11:44:56,16-Jul-2020 03:44:56,29.84646,-123.58618,093.3 120.0,093.3,120.0,510.000,514.126,,5.7573,,5.7578,,5.7576,34.2254,,34.2256,34.2261,,34.2277,34.2267,0.4156,,0.4166,0.4799,,,,,,18.073,18.3783,20.0996,,,,,0.0322,,,,1.8462,,41.6014,40.085,26.9763,,26.9768,,0.6265,85.5033,,7.540,,1.9043E+00,,1.0000E-12,,5.7135,5.7141,1.0326,,5.951,,,,,,,,,,,,,
CalCOFI,2007SR,017,,2007_017u,16-Jul-2020 11:44:57,16-Jul-2020 03:44:57,29.84646,-123.58618,093.3 120.0,093.3,120.0,509.000,513.117,,5.7563,,5.7563,,5.7563,34.2216,,34.2218,34.2229,,34.2245,34.2232,0.4174,,0.4184,0.4818,1.8459,,0.4655,0.6630,0.5724,18.150,18.4587,20.1800,80.273,,32.0815,26.1308,0.0314,,,,1.8459,,41.5930,40.077,26.9734,,26.9744,,0.6265,85.5034,,7.541,,1.9043E+00,,1.0000E-12,,5.7126,5.7126,1.0326,,5.976,26.430,,,,,,,,,,,,
CalCOFI,2007SR,017,,2007_017u,16-Jul-2020 11:44:58,16-Jul-2020 03:44:58,29.84646,-123.58618,093.3 120.0,093.3,120.0,508.000,512.108,,5.7707,,5.7689,,5.7698,34.2226,,34.2228,34.2241,,34.2257,34.2243,0.4217,,0.4229,0.4863,1.8401,,0.4517,0.6485,0.5674,18.340,18.6570,20.3785,80.022,,31.4693,25.9239,0.0324,,,,1.8463,,41.6042,40.088,26.9724,,26.9738,,0.6265,85.5034,,7.541,,1.9043E+00,,1.0000E-12,,5.7270,5.7252,1.0326,,6.040,26.355,,,,,,,,,,,,
CalCOFI,2007SR,017,,2007_017u,16-Jul-2020 11:45:00,16-Jul-2020 03:45:00,29.84646,-123.58618,093.3 120.0,093.3,120.0,507.000,511.098,,5.7927,,5.7923,,5.7925,34.2242,,34.2244,34.2260,,34.2276,34.2260,0.4227,,0.4240,0.4873,1.8417,,0.4555,0.6525,0.5699,18.383,18.7019,20.4235,80.089,,31.6327,26.0281,0.0326,,,,1.8470,,41.6239,40.107,26.9710,,26.9724,,0.6265,85.5034,,7.542,,1.9043E+00,,1.0000E-12,,5.7490,5.7486,1.0326,,6.058,26.392,,,,,,,,,,,,
CalCOFI,2007SR,017,,2007_017u,16-Jul-2020 11:45:01,16-Jul-2020 03:45:01,29.84646,-123.58618,093.3 120.0,093.3,120.0,506.000,510.089,,5.8152,,5.8163,,5.8158,34.2239,,34.2241,34.2252,,34.2268,34.2255,0.4188,,0.4199,0.4833,1.8353,,0.4402,0.6365,0.5599,18.211,18.5224,20.2438,79.813,,30.9595,25.6017,0.0322,,,,1.8476,,41.6407,40.124,26.9679,,26.9688,,0.6265,85.5034,,7.542,,1.9043E+00,,1.0000E-12,,5.7715,5.7726,1.0326,,6.004,26.316,,,,,,,,,,,,
CalCOFI,2007SR,017,,2007_017u,16-Jul-2020 11:45:02,16-Jul-2020 03:45:02,29.84646,-123.58618,093.3 120.0,093.3,120.0,505.000,509.080,,5.8279,,5.8282,,5.8281,34.2236,,34.2238,34.2248,,34.2264,34.2251,0.4202,,0.4214,0.4847,1.8307,,0.4292,0.6250,0.5549,18.275,18.5892,20.3106,79.613,,30.4717,25.3912,0.0319,,,,1.8477,,41.6436,40.127,26.9661,,26.9670,,0.6265,85.5034,,7.541,,1.9043E+00,,1.0000E-12,,5.7843,5.7846,1.0326,,6.027,26.257,,,,,,,,,,,,
CalCOFI,2007SR,017,,2007_017u,16-Jul-2020 11:45:02,16-Jul-2020 03:45:02,29.84646,-123.58618,093.3 120.0,093.3,120.0,504.000,508.070,,5.8324,,5.8323,,5.8324,34.2231,,34.2233,34.2240,,34.2256,34.2245,0.4170,,0.4180,0.4814,1.8349,,0.4393,0.6355,0.5585,18.134,18.4420,20.1633,79.797,,30.9205,25.5419,0.0317,,,,1.8476,,41.6407,40.124,26.9651,,26.9659,,0.6265,85.5034,,7.543,,1.9043E+00,,1.0000E-12,,5.7888,5.7887,1.0326,,5.981,26.320,,,,,,,,,,,,
CalCOFI,2007SR,017,,2007_017u,16-Jul-2020 11:45:03,16-Jul-2020 03:45:03,29.84646,-123.58618,093.3 120.0,093.3,120.0,503.000,507.061,,5.8935,,5.8906,,5.8921,34.2316,,34.2318,34.2350,,34.2366,34.2342,0.4253,,0.4267,0.4901,1.8324,,0.4333,0.6292,0.5597,18.497,18.8209,20.5426,79.686,,30.6498,25.5962,0.0317,,,,1.8472,,41.6295,40.113,26.9643,,26.9674,,0.6271,85.4910,,7.542,,1.9043E+00,,1.0000E-12,,5.8498,5.8469,1.0326,,6.110,26.321,,,,,,,,,,,,
CalCOFI,2007SR,017,,2007_017u,16-Jul-2020 11:45:04,16-Jul-2020 03:45:04,29.84646,-123.58618,093.3 120.0,093.3,120.0,502.000,506.052,,5.9654,,5.9636,,5.9645,34.2353,,34.2355,34.2363,,34.2379,34.2367,0.4328,,0.4345,0.4979,1.8285,,0.4240,0.6195,0.5587,18.823,19.1612,20.8831,79.517,,30.2376,25.5604,0.0324,,,,1.8462,,41.6014,40.085,26.9583,,26.9593,,0.6270,85.4928,,7.542,,1.9043E+00,,1.0000E-12,,5.9215,5.9197,1.0326,,6.228,26.310,,,,,,,,,,,,
CalCOFI,2007SR,017,,2007_017u,16-Jul-2020 11:45:05,16-Jul-2020 03:45:05,29.84646,-123.58618,093.3 120.0,093.3,120.0,501.000,505.043,,5.9579,,5.9582,,5.9581,34.2296,,34.2298,34.2297,,34.2313,34.2306,0.4359,,0.4378,0.5011,1.8254,,0.4166,0.6117,0.5564,18.958,19.3022,21.0242,79.382,,29.9083,25.4663,0.0322,,,,1.8448,,41.5621,40.046,26.9547,,26.9547,,0.6274,85.4847,,7.542,,1.9043E+00,,1.0000E-12,,5.9141,5.9144,1.0326,,6.272,26.261,,,,,,,,,,,,
CalCOFI,2007SR,017,,2007_017u,16-Jul-2020 11:45:06,16-Jul-2020 03:45:06,29.84646,-123.58618,093.3 120.0,093.3,120.0,500.000,504.033,,5.9431,,5.9440,,5.9436,34.2219,,34.2221,34.2228,,34.2244,34.2233,0.4375,,0.4394,0.5028,1.8235,,0.4120,0.6070,0.5549,19.026,19.3731,21.0952,79.302,,29.7132,25.4042,0.0313,,,,1.8431,,41.5144,40.000,26.9504,,26.9510,,0.6276,85.4791,,7.543,,1.9043E+00,,1.0000E-12,,5.8995,5.9004,1.0326,,6.292,26.224,,,,,,,,,,,,
CalCOFI,2007SR,017,,2007_017u,16-Jul-2020 11:45:07,16-Jul-2020 03:45:07,29.84646,-123.58618,093.3 120.0,093.3,120.0,499.000,503.024,,5.9466,,5.9471,,5.9469,34.2218,,34.2220,34.2226,,34.2242,34.2231,0.4314,,0.4331,0.4964,1.8238,,0.4128,0.6077,0.5521,18.760,19.0955,20.8173,79.314,,29.7424,25.2799,0.0323,,,,1.8416,,41.4723,39.958,26.9499,,26.9505,,0.6271,85.4909,,7.543,,1.9043E+00,,1.0000E-12,,5.9030,5.9036,1.0326,,6.204,26.230,,,,,,,,,,,,
CalCOFI,2007SR,017,,2007_017u,16-Jul-2020 11:45:08,16-Jul-2020 03:45:08,29.84646,-123.58618,093.3 120.0,093.3,120.0,498.000,502.015,,5.9355,,5.9345,,5.9350,34.2213,,34.2215,34.2225,,34.2241,34.2228,0.4387,,0.4407,0.5041,1.8251,,0.4159,0.6110,0.5576,19.080,19.4295,21.1516,79.369,,29.8766,25.5141,0.0315,,,,1.8403,,41.4358,39.922,26.9508,,26.9519,,0.6271,85.4907,,7.543,,1.9043E+00,,1.0000E-12,,5.8921,5.8911,1.0326,,6.308,26.241,,,,,,,,,,,,
CalCOFI,2007SR,017,,2007_017u,16-Jul-2020 11:45:10,16-Jul-2020 03:45:10,29.84646,-123.58618,093.3 120.0,093.3,120.0,497.000,501.006,,5.9461,,5.9473,,5.9467,34.2227,,34.2229,34.2237,,34.2253,34.2241,0.4318,,0.4335,0.4968,1.8253,,0.4163,0.6115,0.5542,18.776,19.1122,20.8340,79.379,,29.9010,25.3675,0.0319,,,,1.8388,,41.3936,39.881,26.9507,,26.9513,,0.6275,85.4826,,7.543,,1.9043E+00,,1.0000E-12,,5.9027,5.9039,1.0326,,6.209,26.252,,,,,,,,,,,,
CalCOFI,2007SR,017,,2007_017u,16-Jul-2020 11:45:11,16-Jul-2020 03:45:11,29.84646,-123.58618,093.3 120.0,093.3,120.0,496.000,499.996,,5.9428,,5.9460,,5.9444,34.2232,,34.2234,34.2251,,34.2267,34.2251,0.4397,,0.4417,0.5051,1.8216,,0.4075,0.6022,0.5537,19.124,19.4754,21.1976,79.217,,29.5059,25.3518,0.0320,,,,1.8369,,41.3403,39.828,26.9515,,26.9525,,0.6275,85.4822,,7.543,,1.9043E+00,,1.0000E-12,,5.8996,5.9028,1.0326,,6.324,26.198,,,,,,,,,,,,
CalCOFI,2007SR,017,,2007_017u,16-Jul-2020 11:45:12,16-Jul-2020 03:45:12,29.84646,-123.58618,093.3 120.0,093.3,120.0,495.000,498.987,,5.9568,,5.9585,,5.9577,34.2254,,34.2256,34.2266,,34.2282,34.2269,0.4580,,0.4609,0.5242,1.8235,,0.4120,0.6070,0.5656,19.917,20.3033,22.0260,79.302,,29.7132,25.8696,0.0312,,,,1.8349,,41.2841,39.773,26.9514,,26.9521,,0.6266,85.5018,,7.543,,1.9043E+00,,1.0000E-12,,5.9136,5.9153,1.0326,,6.588,26.234,,,,,,,,,,,,
CalCOFI,2007SR,017,,2007_017u,16-Jul-2020 11:45:13,16-Jul-2020 03:45:13,29.84646,-123.58618,093.3 120.0,093.3,120.0,494.000,497.978,,5.9508,,5.9476,,5.9492,34.2201,,34.2203,34.2195,,34.2211,34.2207,0.4746,,0.4782,0.5416,1.8281,,0.4230,0.6185,0.5801,20.638,21.0559,22.7793,79.500,,30.1961,26.4877,0.0324,,,,1.8331,,41.2336,39.723,26.9480,,26.9479,,0.6271,85.4916,,7.543,,1.9043E+00,,1.0000E-12,,5.9077,5.9045,1.0326,,6.826,26.291,,,,,,,,,,,,
CalCOFI,2007SR,017,,2007_017u,16-Jul-2020 11:45:14,16-Jul-2020 03:45:14,29.84646,-123.58618,093.3 120.0,093.3,120.0,493.000,496.968,,5.9321,,5.9235,,5.9278,34.2114,,34.2116,34.2077,,34.2093,34.2105,0.4816,,0.4855,0.5489,1.8286,,0.4242,0.6197,0.5843,20.945,21.3764,23.1000,79.521,,30.2473,26.6737,0.0321,,,,1.8315,,41.1887,39.679,26.9434,,26.9415,,0.6271,85.4910,,7.543,,1.9043E+00,,1.0000E-12,,5.8892,5.8806,1.0326,,6.924,26.281,,,,,,,,,,,,
CalCOFI,2007SR,017,,2007_017u,16-Jul-2020 11:45:14,16-Jul-2020 03:45:14,29.84646,-123.58619,093.3 120.0,093.3,120.0,492.000,495.959,,5.8720,,5.8666,,5.8693,34.1984,,34.1986,34.1985,,34.2001,34.1994,0.4861,,0.4902,0.5536,1.8325,,0.4335,0.6295,0.5916,21.141,21.5810,23.3048,79.693,,30.6668,26.9858,0.0317,,,,1.8301,,41.1493,39.640,26.9406,,26.9414,,0.6265,85.5033,,7.543,,1.9043E+00,,1.0000E-12,,5.8294,5.8240,1.0326,,6.978,26.302,,,,,,,,,,,,
CalCOFI,2007SR,017,,2007_017u,16-Jul-2020 11:45:15,16-Jul-2020 03:45:15,29.84646,-123.58620,093.3 120.0,093.3,120.0,491.000,494.950,,5.8603,,5.8564,,5.8584,34.1993,,34.1995,34.1989,,34.2005,34.2000,0.4902,,0.4945,0.5579,1.8219,,0.4082,0.6030,0.5805,21.318,21.7658,23.4897,79.231,,29.5400,26.5149,0.0313,,,,1.8284,,41.1016,39.593,26.9427,,26.9429,,0.6271,85.4905,,7.543,,1.9043E+00,,1.0000E-12,,5.8178,5.8140,1.0326,,7.035,26.143,,,,,,,,,,,,
CalCOFI,2007SR,017,,2007_017u,16-Jul-2020 11:45:16,16-Jul-2020 03:45:16,29.84646,-123.58620,093.3 120.0,093.3,120.0,490.000,493.941,,5.8335,,5.8337,,5.8336,34.1958,,34.1960,34.1968,,34.1984,34.1972,0.4941,,0.4986,0.5619,1.8282,,0.4233,0.6187,0.5903,21.488,21.9432,23.6673,79.505,,30.2083,26.9378,0.0319,,,,1.8263,,41.0426,39.535,26.9433,,26.9441,,0.6271,85.4904,,7.543,,1.9043E+00,,1.0000E-12,,5.7912,5.7914,1.0326,,7.086,26.219,,,,,,,,,,,,
CalCOFI,2007SR,017,,2007_017u,16-Jul-2020 11:45:18,16-Jul-2020 03:45:18,29.84646,-123.58620,093.3 120.0,093.3,120.0,489.000,492.931,,5.8410,,5.8451,,5.8431,34.1968,,34.1970,34.1986,,34.2002,34.1986,0.5066,,0.5116,0.5750,1.8250,,0.4156,0.6107,0.5929,22.033,22.5121,24.2366,79.365,,29.8668,27.0517,0.0323,,,,1.8242,,40.9837,39.477,26.9431,,26.9441,,0.6271,85.4905,,7.543,,1.9043E+00,,1.0000E-12,,5.7988,5.8029,1.0326,,7.267,26.180,,,,,,,,,,,,
CalCOFI,2007SR,017,,2007_017u,16-Jul-2020 11:45:19,16-Jul-2020 03:45:19,29.84646,-123.58618,093.3 120.0,093.3,120.0,488.000,491.922,,5.8414,,5.8434,,5.8424,34.1942,,34.1944,34.1960,,34.1976,34.1960,0.5073,,0.5124,0.5757,1.8266,,0.4194,0.6147,0.5952,22.062,22.5424,24.2669,79.436,,30.0400,27.1535,0.0327,,,,1.8232,,40.9556,39.450,26.9410,,26.9422,,0.6271,85.4898,,7.543,,1.9043E+00,,1.0000E-12,,5.7993,5.8013,1.0326,,7.277,26.202,,,,,,,,,,,,
CalCOFI,2007SR,017,,2007_017u,16-Jul-2020 11:45:20,16-Jul-2020 03:45:20,29.84646,-123.58618,093.3 120.0,093.3,120.0,487.000,490.913,,5.9194,,5.9195,,5.9195,34.1948,,34.1950,34.1965,,34.1981,34.1966,0.5054,,0.5104,0.5737,1.8226,,0.4099,0.6047,0.5892,21.980,22.4568,24.1813,79.264,,29.6205,26.9009,0.0323,,,,1.8229,,40.9472,39.441,26.9318,,26.9331,,0.6265,85.5035,,7.544,,1.9043E+00,,1.0000E-12,,5.8771,5.8772,1.0326,,7.263,26.192,,,,,,,,,,,,
CalCOFI,2007SR,017,,2007_017u,16-Jul-2020 11:45:21,16-Jul-2020 03:45:21,29.84646,-123.58618,093.3 120.0,093.3,120.0,486.000,489.904,,5.9243,,5.9239,,5.9241,34.1934,,34.1936,34.1943,,34.1959,34.1948,0.5058,,0.5108,0.5742,1.8222,,0.4089,0.6037,0.5890,21.996,22.4735,24.1980,79.245,,29.5742,26.8861,0.0324,,,,1.8227,,40.9416,39.436,26.9300,,26.9309,,0.6265,85.5034,,7.544,,1.9043E+00,,1.0000E-12,,5.8821,5.8817,1.0326,,7.269,26.188,,,,,,,,,,,,
CalCOFI,2007SR,017,,2007_017u,16-Jul-2020 11:45:22,16-Jul-2020 03:45:22,29.84646,-123.58618,093.3 120.0,093.3,120.0,485.000,488.894,,5.9123,,5.9168,,5.9146,34.1950,,34.1952,34.1957,,34.1973,34.1963,0.5066,,0.5116,0.5750,1.8223,,0.4092,0.6040,0.5895,22.029,22.5080,24.2325,79.249,,29.5839,26.9082,0.0313,,,,1.8227,,40.9416,39.436,26.9328,,26.9328,,0.6274,85.4834,,7.545,,1.9043E+00,,1.0000E-12,,5.8702,5.8747,1.0326,,7.278,26.185,,,,,,,,,,,,
CalCOFI,2007SR,017,,2007_017u,16-Jul-2020 11:45:22,16-Jul-2020 03:45:22,29.84646,-123.58620,093.3 120.0,093.3,120.0,484.000,487.885,,5.9122,,5.9142,,5.9132,34.1944,,34.1946,34.1951,,34.1967,34.1957,0.5101,,0.5153,0.5787,1.8222,,0.4089,0.6037,0.5912,22.183,22.6687,24.3933,79.244,,29.5717,26.9825,0.0317,,,,1.8227,,40.9416,39.436,26.9323,,26.9326,,0.6838,84.2910,,7.545,,1.9043E+00,,1.0000E-12,,5.8702,5.8722,1.0326,,7.329,26.182,,,,,,,,,,,,
CalCOFI,2007SR,017,,2007_017u,16-Jul-2020 11:45:23,16-Jul-2020 03:45:23,29.84646,-123.58620,093.3 120.0,093.3,120.0,483.000,486.876,,5.9028,,5.9038,,5.9033,34.1940,,34.1942,34.1948,,34.1964,34.1953,0.5050,,0.5100,0.5733,1.8264,,0.4190,0.6142,0.5938,21.963,22.4391,24.1635,79.428,,30.0205,27.0920,0.0313,,,,1.8228,,40.9444,39.439,26.9332,,26.9337,,0.6323,85.3797,,7.546,,1.9043E+00,,1.0000E-12,,5.8610,5.8620,1.0326,,7.254,26.236,,,,,,,,,,,,
CalCOFI,2007SR,017,,2007_017u,16-Jul-2020 11:45:24,16-Jul-2020 03:45:24,29.84646,-123.58620,093.3 120.0,093.3,120.0,482.000,485.867,,5.9005,,5.9009,,5.9007,34.1935,,34.1937,34.1944,,34.1960,34.1949,0.5109,,0.5161,0.5795,1.8279,,0.4225,0.6180,0.5988,22.218,22.7053,24.4299,79.492,,30.1766,27.3033,0.0314,,,,1.8231,,40.9528,39.447,26.9331,,26.9337,,0.6276,85.4796,,7.545,,1.9043E+00,,1.0000E-12,,5.8587,5.8591,1.0326,,7.338,26.255,,,,,,,,,,,,
CalCOFI,2007SR,017,,2007_017u,16-Jul-2020 11:45:26,16-Jul-2020 03:45:26,29.84646,-123.58620,093.3 120.0,093.3,120.0,481.000,484.858,,5.9028,,5.9030,,5.9029,34.1929,,34.1931,34.1938,,34.1954,34.1943,0.5175,,0.5230,0.5864,1.8296,,0.4266,0.6222,0.6043,22.503,23.0028,24.7277,79.568,,30.3620,27.5449,0.0318,,,,1.8239,,40.9753,39.469,26.9323,,26.9330,,0.6272,85.4891,,7.546,,1.9043E+00,,1.0000E-12,,5.8611,5.8613,1.0326,,7.433,26.282,,,,,,,,,,,,
CalCOFI,2007SR,017,,2007_017u,16-Jul-2020 11:45:27,16-Jul-2020 03:45:27,29.84647,-123.58618,093.3 120.0,093.3,120.0,480.000,483.848,,5.8991,,5.8984,,5.8988,34.1914,,34.1916,34.1918,,34.1934,34.1925,0.5216,,0.5273,0.5907,1.8233,,0.4116,0.6065,0.5986,22.686,23.1938,24.9188,79.293,,29.6912,27.3050,0.0323,,,,1.8251,,41.0089,39.502,26.9316,,26.9320,,0.6274,85.4842,,7.547,,1.9043E+00,,1.0000E-12,,5.8575,5.8568,1.0326,,7.492,26.188,,,,,,,,,,,,
CalCOFI,2007SR,017,,2007_017u,16-Jul-2020 11:45:28,16-Jul-2020 03:45:28,29.84647,-123.58618,093.3 120.0,093.3,120.0,479.000,482.839,,5.8983,,5.8985,,5.8984,34.1899,,34.1901,34.1908,,34.1924,34.1913,0.5213,,0.5270,0.5904,1.8263,,0.4187,0.6140,0.6022,22.673,23.1802,24.9053,79.423,,30.0083,27.4568,0.0315,,,,1.8264,,41.0455,39.538,26.9305,,26.9312,,0.6265,85.5036,,7.547,,1.9043E+00,,1.0000E-12,,5.8568,5.8570,1.0326,,7.488,26.231,,,,,,,,,,,,
CalCOFI,2007SR,017,,2007_017u,16-Jul-2020 11:45:29,16-Jul-2020 03:45:29,29.84646,-123.58620,093.3 120.0,093.3,120.0,478.000,481.830,,5.8995,,5.8997,,5.8996,34.1894,,34.1896,34.1904,,34.1920,34.1908,0.5151,,0.5205,0.5839,1.8201,,0.4039,0.5985,0.5912,22.402,22.8973,24.6221,79.153,,29.3498,26.9860,0.0317,,,,1.8277,,41.0820,39.574,26.9299,,26.9306,,0.6266,85.5021,,7.548,,1.9043E+00,,1.0000E-12,,5.8581,5.8583,1.0326,,7.398,26.142,,,,,,,,,,,,
CalCOFI,2007SR,017,,2007_017u,16-Jul-2020 11:45:30,16-Jul-2020 03:45:30,29.84646,-123.58620,093.3 120.0,093.3,120.0,477.000,480.821,,5.9214,,5.9329,,5.9272,34.1944,,34.1946,34.1986,,34.2002,34.1974,0.5106,,0.5158,0.5792,1.8183,,0.3996,0.5940,0.5866,22.206,22.6927,24.4174,79.077,,29.1644,26.7909,0.0321,,,,1.8287,,41.1100,39.602,26.9311,,26.9330,,0.6271,85.4909,,7.547,,1.9043E+00,,1.0000E-12,,5.8799,5.8914,1.0326,,7.338,26.139,,,,,,,,,,,,
CalCOFI,2007SR,017,,2007_017u,16-Jul-2020 11:45:30,16-Jul-2020 03:45:30,29.84646,-123.58620,093.3 120.0,093.3,120.0,476.000,479.812,,5.9736,,5.9929,,5.9833,34.1938,,34.1940,34.2003,,34.2019,34.1980,0.5131,,0.5184,0.5818,1.8272,,0.4209,0.6162,0.5990,22.314,22.8055,24.5302,79.463,,30.1059,27.3181,0.0317,,,,1.8293,,41.1269,39.618,26.9241,,26.9268,,0.6270,85.4921,,7.548,,1.9043E+00,,1.0000E-12,,5.9321,5.9513,1.0326,,7.382,26.303,,,,,,,,,,,,
CalCOFI,2007SR,017,,2007_017u,16-Jul-2020 11:45:31,16-Jul-2020 03:45:31,29.84646,-123.58620,093.3 120.0,093.3,120.0,475.000,478.803,,6.0380,,6.0331,,6.0356,34.2034,,34.2036,34.2034,,34.2050,34.2043,0.5160,,0.5215,0.5848,1.8209,,0.4058,0.6005,0.5927,22.441,22.9381,24.6629,79.189,,29.4376,27.0503,0.0314,,,,1.8296,,41.1353,39.627,26.9236,,26.9242,,0.6276,85.4800,,7.547,,1.9043E+00,,1.0000E-12,,5.9963,5.9914,1.0326,,7.436,26.238,,,,,,,,,,,,
CalCOFI,2007SR,017,,2007_017u,16-Jul-2020 11:45:33,16-Jul-2020 03:45:33,29.84646,-123.58620,093.3 120.0,093.3,120.0,474.000,477.793,,6.0159,,6.0138,,6.0149,34.1976,,34.1978,34.2003,,34.2019,34.1999,0.5230,,0.5288,0.5921,1.8200,,0.4037,0.5982,0.5952,22.746,23.2564,24.9815,79.150,,29.3424,27.1620,0.0319,,,,1.8291,,41.1213,39.613,26.9218,,26.9242,,0.6276,85.4798,,7.547,,1.9043E+00,,1.0000E-12,,5.9744,5.9724,1.0326,,7.533,26.212,,,,,,,,,,,,
CalCOFI,2007SR,017,,2007_017u,16-Jul-2020 11:45:34,16-Jul-2020 03:45:34,29.84647,-123.58620,093.3 120.0,093.3,120.0,473.000,476.784,,5.9215,,5.9413,,5.9314,34.1887,,34.1889,34.1885,,34.1901,34.1895,0.5306,,0.5367,0.6001,1.8234,,0.4118,0.6067,0.6034,23.076,23.6009,25.3263,79.297,,29.7010,27.5137,0.0319,,,,1.8271,,41.0651,39.557,26.9265,,26.9239,,0.6273,85.4862,,7.548,,1.9043E+00,,1.0000E-12,,5.8805,5.9002,1.0326,,7.625,26.214,,,,,,,,,,,,
CalCOFI,2007SR,017,,2007_017u,16-Jul-2020 11:45:35,16-Jul-2020 03:45:35,29.84647,-123.58620,093.3 120.0,093.3,120.0,472.000,475.775,,5.9281,,5.9281,,5.9281,34.1889,,34.1891,34.1895,,34.1911,34.1901,0.5083,,0.5134,0.5768,1.8238,,0.4128,0.6077,0.5923,22.104,22.5863,24.3108,79.313,,29.7400,27.0254,0.0311,,,,1.8243,,40.9865,39.480,26.9259,,26.9264,,0.6267,85.4990,,7.548,,1.9043E+00,,1.0000E-12,,5.8871,5.8871,1.0326,,7.305,26.212,,,,,,,,,,,,
CalCOFI,2007SR,017,,2007_017u,16-Jul-2020 11:45:36,16-Jul-2020 03:45:36,29.84646,-123.58618,093.3 120.0,093.3,120.0,471.000,474.766,,5.9471,,5.9452,,5.9462,34.1917,,34.1919,34.1928,,34.1944,34.1932,0.4846,,0.4887,0.5520,1.8180,,0.3989,0.5932,0.5726,21.076,21.5131,23.2369,79.061,,29.1254,26.1812,0.0310,,,,1.8219,,40.9191,39.414,26.9257,,26.9268,,0.6274,85.4836,,7.548,,1.9043E+00,,1.0000E-12,,5.9062,5.9043,1.0326,,6.968,26.140,,,,,,,,,,,,
CalCOFI,2007SR,017,,2007_017u,16-Jul-2020 11:45:37,16-Jul-2020 03:45:37,29.84646,-123.58618,093.3 120.0,093.3,120.0,470.000,473.757,,6.0182,,6.0168,,6.0175,34.2020,,34.2022,34.2047,,34.2063,34.2043,0.4731,,0.4766,0.5400,1.8127,,0.3863,0.5799,0.5600,20.576,20.9912,22.7145,78.833,,28.5693,25.6419,0.0316,,,,1.8196,,40.8545,39.350,26.9249,,26.9273,,0.6276,85.4798,,7.547,,1.9043E+00,,1.0000E-12,,5.9770,5.9757,1.0326,,6.815,26.110,,,,,,,,,,,,
CalCOFI,2007SR,017,,2007_017u,16-Jul-2020 11:45:38,16-Jul-2020 03:45:38,29.84646,-123.58620,093.3 120.0,093.3,120.0,469.000,472.748,,6.0917,,6.0948,,6.0933,34.2112,,34.2114,34.2163,,34.2179,34.2147,0.4720,,0.4755,0.5388,1.8168,,0.3960,0.5902,0.5645,20.526,20.9390,22.6623,79.010,,29.0010,25.8317,0.0322,,,,1.8174,,40.7927,39.290,26.9229,,26.9266,,0.6275,85.4830,,7.547,,1.9043E+00,,1.0000E-12,,6.0504,6.0535,1.0326,,6.810,26.218,,,,,,,,,,,,
CalCOFI,2007SR,017,,2007_017u,16-Jul-2020 11:45:38,16-Jul-2020 03:45:38,29.84646,-123.58620,093.3 120.0,093.3,120.0,468.000,471.738,,6.1498,,6.1547,,6.1523,34.2220,,34.2222,34.2253,,34.2269,34.2246,0.4707,,0.4741,0.5375,1.8157,,0.3934,0.5875,0.5625,20.471,20.8816,22.6048,78.964,,28.8888,25.7468,0.0310,,,,1.8150,,40.7253,39.223,26.9241,,26.9261,,0.6276,85.4798,,7.547,,1.9043E+00,,1.0000E-12,,6.1084,6.1133,1.0326,,6.802,26.241,,,,,,,,,,,,
CalCOFI,2007SR,017,,2007_017u,16-Jul-2020 11:45:39,16-Jul-2020 03:45:39,29.84646,-123.58620,093.3 120.0,093.3,120.0,467.000,470.729,,6.1981,,6.2005,,6.1993,34.2229,,34.2231,34.2243,,34.2259,34.2245,0.4735,,0.4771,0.5404,1.8092,,0.3779,0.5712,0.5558,20.592,21.0079,22.7312,78.682,,28.2010,25.4661,0.0320,,,,1.8121,,40.6439,39.143,26.9186,,26.9195,,0.6276,85.4798,,7.547,,1.9043E+00,,1.0000E-12,,6.1566,6.1590,1.0326,,6.850,26.175,,,,,,,,,,,,
CalCOFI,2007SR,017,,2007_017u,16-Jul-2020 11:45:40,16-Jul-2020 03:45:40,29.84646,-123.58620,093.3 120.0,093.3,120.0,466.000,469.720,,6.2025,,6.2074,,6.2050,34.2201,,34.2203,34.2217,,34.2233,34.2218,0.4821,,0.4860,0.5494,1.8085,,0.3762,0.5694,0.5594,20.965,21.3973,23.1209,78.652,,28.1278,25.6244,0.0323,,,,1.8078,,40.5232,39.024,26.9159,,26.9165,,0.6276,85.4798,,7.547,,1.9043E+00,,1.0000E-12,,6.1610,6.1660,1.0326,,6.975,26.168,,,,,,,,,,,,
CalCOFI,2007SR,017,,2007_017u,16-Jul-2020 11:45:42,16-Jul-2020 03:45:42,29.84646,-123.58620,093.3 120.0,093.3,120.0,465.000,468.711,,6.1212,,6.1560,,6.1386,34.2139,,34.2141,34.2193,,34.2209,34.2175,0.4719,,0.4754,0.5387,1.8109,,0.3820,0.5754,0.5571,20.524,20.9369,22.6602,78.754,,28.3766,25.5184,0.0323,,,,1.7997,,40.2957,38.800,26.9213,,26.9211,,0.6276,85.4798,,7.547,,1.9043E+00,,1.0000E-12,,6.0801,6.1148,1.0326,,6.815,26.171,,,,,,,,,,,,
CalCOFI,2007SR,017,,2007_017u,16-Jul-2020 11:45:44,16-Jul-2020 03:45:44,29.84646,-123.58619,093.3 120.0,093.3,120.0,464.000,467.702,,6.1822,,6.1852,,6.1837,34.2220,,34.2222,34.2249,,34.2265,34.2244,0.4666,,0.4699,0.5332,1.8117,,0.3839,0.5774,0.5553,20.294,20.6968,22.4199,78.792,,28.4693,25.4446,0.0319,,,,1.7939,,40.1329,38.640,26.9199,,26.9218,,0.6276,85.4798,,7.547,,1.9043E+00,,1.0000E-12,,6.1410,6.1440,1.0326,,6.748,26.202,,,,,,,,,,,,
CalCOFI,2007SR,017,,2007_017u,16-Jul-2020 11:45:45,16-Jul-2020 03:45:45,29.84646,-123.58618,093.3 120.0,093.3,120.0,463.000,466.693,,6.1967,,6.1950,,6.1959,34.2203,,34.2205,34.2207,,34.2223,34.2214,0.4716,,0.4751,0.5384,1.8102,,0.3803,0.5737,0.5561,20.508,20.9202,22.6435,78.723,,28.3010,25.4723,0.0317,,,,1.7910,,40.0514,38.560,26.9168,,26.9173,,0.6276,85.4798,,7.547,,1.9043E+00,,1.0000E-12,,6.1555,6.1538,1.0326,,6.821,26.184,,,,,,,,,,,,